Weather History for VOHY - September, 2013

Change the Weather History Date:

Saturday, September 21, 2013

  Actual Average Record
Temperature  
Mean Temperature 80 °F -  
Max Temperature 86 °F 83 °F 89 °F (1998)
Min Temperature 73 °F 70 °F 69 °F (1997)
Cooling Degree Days 14    
Growing Degree Days 30 (Base 50)    
Moisture  
Dew Point 70 °F    
Average Humidity 69    
Maximum Humidity 86    
Minimum Humidity 55    
Precipitation  
Precipitation 0.00 in 0.15 in - ()
Sea Level Pressure  
Sea Level Pressure 29.63 in    
Wind  
Wind Speed 7 mph ()    
Max Wind Speed 13 mph    
Max Gust Speed -    
Visibility 3.1 miles    
Events Rain    
Averages and records for this station are not official NWS values.
T = Trace of Precipitation, MM = Missing Value Source: Averaged Metar Reports

Daily Weather History Graph

Daily Weather History Graph

Search for Another Location

Airport or City:

Trip Planner

Search our weather history database for the weather conditions in past years. The results will help you decide how hot, cold, wet, or windy it might be!

Date:

Astronomy

Sep. 21, 2013 Rise Set
Actual Time 6:04 AM IST 6:13 PM IST
Civil Twilight 5:43 AM IST 6:34 PM IST
Nautical Twilight 5:18 AM IST 7:00 PM IST
Astronomical Twilight 4:52 AM IST 7:25 PM IST
Moon 7:32 PM IST (9/21) 7:31 AM IST (9/21)
Length of Visible Light 12h 51m
Length of Day
12h 08m
Waning Gibbous, 96% of the Moon is Illuminated
Sep 21
Waning Gibbous
Sep 27
Last Quarter
Oct 5
New
Oct 12
First Quarter
Oct 19
Full

Hourly Weather History & Observations

Time (IST) Temp. Heat Index Dew Point Humidity Pressure Visibility Wind Dir Wind Speed Gust Speed Precip Events Conditions
2:30 AM 75 °F - 70 °F 81% 29.53 in 2 mi Calm Calm - - Rain Light Drizzle
5:30 AM 74 °F - 71 °F 86% 29.55 in 2 mi WNW 3.5 mph - - Rain Light Drizzle
6:10 AM 73.4 °F - 68.0 °F 83% 29.68 in 1.9 mi WSW 11.5 mph - N/A Rain Light Rain
7:10 AM 73.4 °F - 68.0 °F 83% 29.68 in 1.9 mi NW 11.5 mph - N/A Rain Light Rain
9:10 AM 77.0 °F - 69.8 °F 78% 29.71 in 3.1 mi WNW 10.4 mph - N/A   Haze
10:10 AM 78.8 °F - 69.8 °F 74% 29.71 in 3.1 mi NW 12.7 mph - N/A   Haze
11:10 AM 80.6 °F 83.9 °F 69.8 °F 70% 29.71 in 3.1 mi WNW 11.5 mph - N/A   Haze
1:10 PM 84.2 °F 88.4 °F 69.8 °F 62% 29.68 in 3.7 mi WNW 9.2 mph - N/A   Mostly Cloudy
2:30 PM 85 °F - 72 °F 57% 29.50 in 6 mi West 6.9 mph - -   Partly Cloudy
3:10 PM 86.0 °F 89.4 °F 68.0 °F 55% 29.62 in 3.7 mi West 5.8 mph - N/A   Mostly Cloudy
4:10 PM 84.2 °F 88.4 °F 69.8 °F 62% 29.62 in 3.7 mi WSW 11.5 mph - N/A   Mostly Cloudy
5:10 PM 84.2 °F 88.4 °F 69.8 °F 62% 29.62 in 3.1 mi West 9.2 mph - N/A   Haze
5:30 PM 83 °F - 71 °F 60% 29.51 in 6 mi West 6.9 mph - -   Scattered Clouds
6:10 PM 84.2 °F 87.3 °F 68.0 °F 58% 29.65 in 3.1 mi West 8.1 mph - N/A   Haze
7:10 PM 82.4 °F 86.3 °F 69.8 °F 66% 29.68 in 3.1 mi WSW 11.5 mph - N/A   Haze
8:10 PM 80.6 °F 83.2 °F 68.0 °F 65% 29.68 in 3.1 mi West 9.2 mph - N/A   Haze
8:30 PM 80 °F - 70 °F 65% 29.57 in 2 mi West 9.2 mph - -   Haze
9:10 PM 80.6 °F 83.2 °F 68.0 °F 65% 29.71 in 3.1 mi West 9.2 mph - N/A   Haze
11:30 PM 78 °F - 71 °F 72% 29.62 in 2 mi West 6.9 mph - -   Haze